Hourly Data Report for October 02, 2013

All times are specified in Local Standard Time (LST). Add 1 hour to adjust for Daylight Saving Time where and when it is observed.

RANKIN INLET A
NUNAVUT

62°48'38.000" N
92°06'53.000" W
32.30 m
2303405
71083
YRT

Download Data

Hourly Data (October 2013)
Hourly Data Report for October 2, 2013
Temp Definition
°C
Dew Point Temp Definition
°C
Rel Hum Definition
%
Wind Dir Definition
10's deg

Wind Spd Definition
km/h
Visibility Definition
km
Stn Press Definition
kPa
Hmdx Definition


Wind Chill Definition


Weather Definition


TIME
00:00 Legend Double Dagger -2.4 -5.6 79 3 31 24.1 100.59   -10 Cloudy
01:00 Legend Double Dagger -2.5 -5.3 81 3 24 24.1 100.65   -9 LegendNANA
02:00 Legend Double Dagger -2.5 -4.7 85 2 24 24.1 100.65   -9 LegendNANA
03:00 Legend Double Dagger -2.1 -4.0 87 1 20 24.1 100.68   -8 Cloudy
04:00 Legend Double Dagger -2.3 -4.6 84 2 26 24.1 100.70   -9 LegendNANA
05:00 Legend Double Dagger -2.2 -4.5 84 2 24 24.1 100.73   -9 LegendNANA
06:00 Legend Double Dagger -2.6 -4.9 84 36 35 24.1 100.73   -10 Cloudy
07:00 Legend Double Dagger -3.0 -5.0 86 2 30 24.1 100.75   -10 LegendNANA
08:00 Legend Double Dagger -3.0 -5.2 85 1 28 24.1 100.77   -10 LegendNANA
09:00 Legend Double Dagger -3.0 -5.3 84 2 32 24.1 100.79   -11 Mostly Cloudy
10:00 Legend Double Dagger -1.3 -4.5 79 1 32 24.1 100.82   -8 LegendNANA
11:00 Legend Double Dagger -0.4 -4.0 77 3 23 24.1 100.83   -6 LegendNANA
12:00 Legend Double Dagger -0.6 -3.5 81 2 26 24.1 100.85   -7 Cloudy
13:00 Legend Double Dagger -0.3 -3.7 78 1 31 24.1 100.87   -7 LegendNANA
14:00 Legend Double Dagger -0.1 -4.0 75 2 24 24.1 100.90   -6 LegendNANA
15:00 Legend Double Dagger 0.2 -4.1 73 2 27 24.1 100.94     Mostly Cloudy
16:00 Legend Double Dagger 0.0 -4.5 72 3 32 24.1 100.95   -7 LegendNANA
17:00 Legend Double Dagger 0.4 -4.1 72 2 27 24.1 100.98     LegendNANA
18:00 Legend Double Dagger 0.5 -4.0 72 3 29 24.1 100.99     Mostly Cloudy
19:00 Legend Double Dagger 0.0 -3.7 76 3 21 24.1 101.02   -5 LegendNANA
20:00 Legend Double Dagger -1.5 -3.7 85 36 17 24.1 101.05   -7 LegendNANA
21:00 Legend Double Dagger -1.9 -3.8 87 36 19 24.1 101.11   -7 Mainly Clear
22:00 Legend Double Dagger -2.3 -4.2 87 36 21 24.1 101.14   -8 LegendNANA
23:00 Legend Double Dagger -2.6 -4.6 86 36 22 24.1 101.16   -9 LegendNANA

Notes on Data Quality.

Legend

  • E = Estimated
  • M = Missing
  • NA = Not Available
  • ‡ = Partner data that is not subject to review by the National Climate Archives
Date modified: